Location: Newark
(13.6797°N, 8.5297°E)
Time: 05:35:47
(UTC+00:00)

A-11 Canister half - Pass Details

Date: 25 January 2020
Orbit: 1517 x 1683 km, 47.2° (Epoch: 19 February)

Event Time Altitude Azimuth Distance (km) Brightness Sun altitude
Rises 07:07:16 0° 316° (NW) 4,671 11.0 15.7°
Reaches altitude 10° 07:10:16 10° 316° (NW) 3,700 10.5 16.4°
Maximum altitude 07:19:38 83° 229° (SW) 1,577 9.4 18.5°
Drops below altitude 10° 07:29:20 10° 143° (SE) 3,820 12.4 20.6°
Sets 07:32:29 0° 142° (SE) 4,828 12.7 21.3°
